Location: Grust
(42.8833°N, 0.0333°W)
Time: 19:33:23
(UTC+00:00)

CSL-04 Debris - Pass Details

Date: 25 October 2020
Orbit: 827 x 848 km, 98.9° (Epoch: 23 November)

Event Time Altitude Azimuth Distance (km) Brightness Sun altitude
Rises 18:38:07 0° 155° (SSE) 3,366 7.1 -18.3°
Reaches altitude 10° 18:40:28 10° 153° (SSE) 2,439 6.3 -18.7°
Maximum altitude 18:45:49 65° 72° (ENE) 918 4.1 -19.7°
Drops below altitude 10° 18:51:14 10° 352° (N) 2,469 6.7 -20.7°
Sets 18:53:37 0° 349° (N) 3,411 7.5 -21.1°
